TimeEST,TemperatureF,Dew PointF,Humidity,Sea Level PressureIn,VisibilityMPH,Wind Direction,Wind SpeedMPH,Gust SpeedMPH,PrecipitationIn,Events,Conditions,WindDirDegrees,DateUTC
12:43 AM,64.4,59.0,83,30.10,10.0,South,4.6,-,N/A,,Overcast,190,2013-11-07 05:43:00
12:54 AM,64.9,59.0,81,30.10,10.0,SSW,4.6,-,N/A,,Overcast,210,2013-11-07 05:54:00
1:02 AM,64.4,60.8,88,30.10,10.0,SW,5.8,-,N/A,,Overcast,220,2013-11-07 06:02:00
1:54 AM,64.0,59.0,84,30.07,10.0,SSW,5.8,-,N/A,,Overcast,200,2013-11-07 06:54:00
2:54 AM,64.0,60.1,87,30.04,10.0,SSW,5.8,-,0.00,,Mostly Cloudy,210,2013-11-07 07:54:00
3:47 AM,64.4,60.8,88,30.02,10.0,SW,6.9,-,N/A,,Overcast,230,2013-11-07 08:47:00
3:54 AM,64.9,61.0,87,30.02,10.0,SW,5.8,-,N/A,,Overcast,230,2013-11-07 08:54:00
4:39 AM,64.4,60.8,88,30.02,2.5,WSW,3.5,-,0.03,Rain,Light Rain,240,2013-11-07 09:39:00
4:46 AM,64.4,60.8,88,30.01,2.0,Calm,Calm,-,0.05,Rain,Rain,0,2013-11-07 09:46:00
4:54 AM,64.9,61.0,87,30.01,2.5,SW,3.5,-,0.07,Rain,Light Rain,220,2013-11-07 09:54:00
5:16 AM,64.4,60.8,88,30.00,3.0,Calm,Calm,-,0.05,Rain,Rain,0,2013-11-07 10:16:00
5:23 AM,64.4,60.8,88,30.00,4.0,SW,3.5,-,0.05,Rain,Light Rain,220,2013-11-07 10:23:00
5:31 AM,64.4,60.8,88,30.00,4.0,SW,3.5,-,0.06,Rain,Light Rain,230,2013-11-07 10:31:00
5:38 AM,64.4,60.8,88,30.00,3.0,SW,5.8,-,0.07,Rain,Light Rain,230,2013-11-07 10:38:00
5:46 AM,64.4,60.8,88,29.99,3.0,WSW,5.8,-,0.09,Rain,Rain,240,2013-11-07 10:46:00
5:54 AM,64.9,61.0,87,29.99,4.0,SW,5.8,-,0.09,Rain,Light Rain,230,2013-11-07 10:54:00
6:30 AM,64.4,60.8,88,29.98,2.5,SSW,6.9,-,0.04,Rain,Rain,210,2013-11-07 11:30:00
6:54 AM,64.9,62.1,90,29.99,2.5,South,6.9,-,0.09,Rain,Rain,190,2013-11-07 11:54:00
7:14 AM,64.4,62.6,94,29.98,2.5,SSW,4.6,-,0.04,Rain,Rain,210,2013-11-07 12:14:00
7:27 AM,64.4,62.6,94,29.98,2.5,WSW,3.5,-,0.05,Rain,Light Rain,240,2013-11-07 12:27:00
7:40 AM,64.4,62.6,94,29.99,2.5,WSW,4.6,-,0.09,Rain,Rain,240,2013-11-07 12:40:00
7:49 AM,64.4,62.6,94,29.98,4.0,SW,5.8,-,0.10,Rain,Light Rain,230,2013-11-07 12:49:00
7:54 AM,64.9,62.1,90,29.98,3.0,SW,4.6,-,0.11,Rain,Light Rain,230,2013-11-07 12:54:00
8:42 AM,66.2,62.6,88,29.96,6.0,SW,5.8,-,0.02,Rain,Light Rain,220,2013-11-07 13:42:00
8:52 AM,66.2,62.6,88,29.96,9.0,SW,6.9,-,0.03,Rain,Light Rain,220,2013-11-07 13:52:00
8:54 AM,66.0,62.1,87,29.96,10.0,SW,5.8,-,0.03,Rain,Light Rain,220,2013-11-07 13:54:00
9:54 AM,66.0,62.1,87,29.94,6.0,SSW,8.1,-,0.02,Rain,Light Rain,210,2013-11-07 14:54:00
10:54 AM,66.9,62.1,84,29.93,10.0,SW,6.9,-,0.00,,Overcast,230,2013-11-07 15:54:00
11:47 AM,68.0,62.6,83,29.89,10.0,SSW,11.5,-,N/A,,Mostly Cloudy,210,2013-11-07 16:47:00
11:54 AM,69.1,63.0,81,29.89,10.0,SW,10.4,-,N/A,,Mostly Cloudy,220,2013-11-07 16:54:00
12:28 PM,69.8,62.6,78,29.87,10.0,SW,6.9,-,N/A,,Mostly Cloudy,230,2013-11-07 17:28:00
12:39 PM,69.8,62.6,78,29.87,10.0,WSW,8.1,-,N/A,,Scattered Clouds,240,2013-11-07 17:39:00
12:54 PM,69.1,62.1,78,29.86,10.0,WSW,8.1,-,N/A,,Partly Cloudy,250,2013-11-07 17:54:00
1:17 PM,69.8,60.8,73,29.86,10.0,WSW,8.1,-,N/A,,Mostly Cloudy,250,2013-11-07 18:17:00
1:51 PM,69.8,60.8,73,29.87,10.0,West,8.1,-,N/A,,Mostly Cloudy,270,2013-11-07 18:51:00
1:54 PM,70.0,61.0,73,29.87,10.0,West,8.1,-,N/A,,Mostly Cloudy,270,2013-11-07 18:54:00
2:54 PM,70.0,59.0,68,29.87,10.0,WNW,8.1,-,N/A,,Overcast,300,2013-11-07 19:54:00
3:54 PM,68.0,59.0,73,29.88,10.0,NNW,6.9,-,N/A,,Overcast,340,2013-11-07 20:54:00
4:54 PM,64.9,55.9,73,29.90,10.0,North,9.2,-,N/A,,Overcast,360,2013-11-07 21:54:00
5:54 PM,61.0,52.0,72,29.94,10.0,North,6.9,-,N/A,,Partly Cloudy,350,2013-11-07 22:54:00
6:54 PM,60.1,48.9,67,29.97,10.0,North,9.2,18.4,N/A,,Partly Cloudy,10,2013-11-07 23:54:00
7:54 PM,59.0,46.0,62,29.99,10.0,North,11.5,-,N/A,,Mostly Cloudy,350,2013-11-08 00:54:00
8:54 PM,57.0,43.0,59,30.03,10.0,North,5.8,-,N/A,,Mostly Cloudy,10,2013-11-08 01:54:00
9:54 PM,54.0,39.9,59,30.04,10.0,North,5.8,-,N/A,,Partly Cloudy,10,2013-11-08 02:54:00
10:54 PM,52.0,37.0,57,30.05,10.0,North,8.1,-,N/A,,Clear,360,2013-11-08 03:54:00
11:54 PM,50.0,35.1,57,30.06,10.0,North,4.6,-,N/A,,Clear,350,2013-11-08 04:54:00